Regional Weather Roundup
Issued by NWS

Current Version | Previous Version | Text Only | Print | Product List | Glossary Off
Versions: 1 2 3 4 5 6 7 8 9 10 11 12 13 14 15 16 17 18 19 20 21 22 23 24 25 26 27 28 29 30 31 32 33 34 35 36 37 38 39 40 41 42 43 44 45 46 47 48 49 50

000
ASUS44 KJAN 221510
RWRMS

MISSISSIPPI HOURLY WEATHER ROUNDUP
NATIONAL WEATHER SERVICE JACKSON MS
900 AM CST MON JAN 22 2018

NOTE: "FAIR: INDICATES FEW OR NO CLOUDS BELOW 12,000 FEET WITH NO
SIGNIFICANT WEATHER AND/OR OBSTRUCTIONS TO VISIBILITY.

MSZ001>002-007>008-010>013-018>021-025>028-034>036-221600-
NORTHWEST MISSISSIPPI

CITY           SKY/WX    TMP DP  RH WIND       PRES   REMARKS
BATESVILLE     FAIR      50  46  87 CALM      29.87S
CLARKSDALE     MOSUNNY   54  54 100 S8        29.86S
CLEVELAND      PTSUNNY   51  51 100 S8        29.87R
GREENWOOD      CLOUDY    51  50  96 SE5       29.89S
GREENVILLE     PTSUNNY   53  49  86 S8        29.87R
OLIVE BRANCH   MOSUNNY   50  50 100 S9        29.82S
TUNICA           N/A     52  48  87 S10       29.85S
WINONA         CLOUDY    50  50 100 E3        29.88F
$$

MSZ003>006-009-014>017-022>024-029>033-037>039-221600-
NORTHEAST MISSISSIPPI

CITY           SKY/WX    TMP DP  RH WIND       PRES   REMARKS
ABERDEEN       RAIN      57  57 100 W6        29.97R
COLUMBUS AFB   RAIN      58  57  97 S6        29.93R
CORINTH        RAIN      55  54  94 SE5       29.86R
GOLDN TRIANGLE LGT RAIN  57  55  93 S7        29.93S
STARKVILLE     HVY RAIN  57  55  94 SE6       29.94R
TUPELO         HVY RAIN  57  54  89 SE20      29.88R FOG
$$

MSZ040-058-221600-
CENTRAL MISSISSIPPI

CITY           SKY/WX    TMP DP  RH WIND       PRES   REMARKS
JACKSON INTL   LGT RAIN  59  59 100 S5        29.89S FOG
JACKSON HAWKNS LGT RAIN  59  59 100 SW3       29.91R
MADISON        PTSUNNY   57  55  94 CALM      29.89R
MERIDIAN KEY   CLOUDY    64  60  87 S16       29.91F
MERIDIAN NAS   NOT AVBL
RAYMOND        CLOUDY    61  61 100 W8G17     29.90R
VICKSBURG VKS  MOSUNNY   61  59  94 CALM      29.92R
$$

MSZ059>079-221600-
SOUTH MISSISSIPPI

CITY           SKY/WX    TMP DP  RH WIND       PRES   REMARKS
HATTIESBURG    PTSUNNY   65  64  97 S16       29.94F
LAUREL         CLOUDY    63  63 100 S12G17    29.92F
MCCOMB         RAIN      65  63  93 SW9       29.91R FOG
NATCHEZ        CLOUDY    62  59  90 W5        29.94R
PINE BELT      PTSUNNY   63  61  93 S12G21    29.93F
$$

MSZ080>082-221600-
COASTAL MISSISSIPPI

CITY           SKY/WX    TMP DP  RH WIND       PRES   REMARKS
BAY ST LOUIS   MOSUNNY   63  61  94 S8        29.97F
BILOXI         CLOUDY    64  61  90 S12       29.97F
PASCAGOULA     PTSUNNY   67  62  84 S12       29.99F
GULFPORT       CLOUDY    63  61  93 SE13      29.96F FOG
$$

LAZ007>009-015>016-023>026-221600-
NORTHEAST LOUISIANA

CITY           SKY/WX    TMP DP  RH WIND       PRES   REMARKS
BASTROP        FAIR      58  45  60 W9        29.91R
TALLULAH/VBURG FAIR      61  55  81 W3        29.91R
VIDALIA        PTSUNNY  N/A N/A N/A MISG      29.93R
$$



USA.gov is the U.S. government's official web portal to all federal, state and local government web resources and services.